[[{"header":{"parameterUnit":"m.s-1","parameterCategory":1,"la1":30.2991,"la2":30.254,"lo1":-89.0895,"lo2":-89.0444,"dy":0.0017,"dx":0.0017,"nx":28,"ny":28,"refTime":"2025-04-25T09:00:00:Z","depth":0,"parameterNumber":2,"parameterNumberName":"U-component_of_WINDS"},"data":[0,0,0,0,0,0,0,0,0,0,0,0,0,0,0,0,0,0,0,0,0,0,0,0,0,0,0,0,0,0,0,0,0,0,0,0,0,0,0,0,0,0,0,0,0,0,0,0,0,0,0,0,0,0,0,0,0,0,0.0013,0.0014,0,0.0097,0.0098,0.0099,0.0155,0.0155,0.0155,0.0156,0.024,0.0242,0.0244,0,0,0,0,0,0,0,0,0,0,0,0,0,-0.01,-0.0098,0.0013,0.0014,0.0015,0.0097,0.0098,0.0099,0.0154,0.0155,0.0155,0.0156,0.0239,0.0241,0.0244,0,0,0,0,0,0,0,0,0,0,0,0,0,-0.0037,-0.0098,0.0013,0.0053,0.0057,0.0097,0.0098,0.0099,0.0154,0.0155,0.0156,0.0156,0.0239,0.0241,0.0244,0.025,0,0,0.0253,0.0254,0,0,0,0,0,0,0,0,-0.0041,-0.0033,0.0046,0.005,0.0055,0.0116,0.0089,0.015,0.0154,0.0117,0.0156,0.0156,0.0198,0.0204,0.0219,0.0254,0.0258,0.0253,0.0255,0.0256,0.0257,0,0,0,0,0,0,0,-0.0045,-0.0036,0.0046,0.0047,0.0053,0.0066,0.0076,0.0101,0.0153,0.0121,0.0125,0.0134,0.0201,0.0216,0.0221,0.0259,0.0253,0.0255,0.0257,0.0258,0.0303,0.0303,0,0,0,0,0,0,-0.0056,-0.004,0.0044,0.0049,0.0008,0.0068,0.0078,0.0096,0.0153,0.0163,0.0134,0.0136,0.0211,0.0218,0.0224,0.0235,0.0256,0.0259,0.026,0.0304,0.0303,0.0302,0,0,0,0,0,0,-0.0058,-0.0049,0.004,0.0006,0.0018,0.0069,0.0088,0.0097,0.0112,0.0163,0.0173,0.0139,0.0211,0.022,0.0243,0.0239,0.026,0.0262,0.0304,0.0303,0.0303,0.0256,0,0,0,0,0,0,-0.0062,-0.005,-0.0047,0.0005,0.0019,0.0058,0.0088,0.0098,0.0117,0.0122,0.0171,0.018,0.0213,0.0239,0.0246,0.0243,0.0265,0.0305,0.0304,0.0303,0.0258,0.0254,0.025,0,0,0,0,0,-0.0066,-0.0064,-0.0047,-0.0037,0.0024,0.0058,0.0066,0.0104,0.0117,0.012,0.0153,0.0178,0.0238,0.0241,0.0249,0.0247,0.0305,0.0304,0.0303,0.026,0.0255,0.025,0,0,0,0,0,0,-0.0118,-0.0056,-0.0037,-0.0018,0.0014,0.0067,0.0072,0.0097,0.0126,0.0129,0.0174,0.0185,0.0203,0.0228,0.0229,0.0256,0.0275,0.0275,0.0239,0.0234,0.023,0.0224,0.0267,0,0,0,0,0,-0.0127,-0.0105,-0.0052,-0.004,-0.0025,0.0021,0.0037,0.0063,0.0098,0.0112,0.0146,0.0179,0.0205,0.0221,0.0248,0.0262,0.0273,0.0265,0.0261,0.0257,0.0257,0.0266,0.0262,0.0299,0.0299,0.0299,0,0,-0.0146,-0.0109,-0.0098,-0.005,-0.0022,-0.0,0.0032,0.0053,0.007,0.0115,0.0139,0.0165,0.0204,0.0223,0.0233,0.0244,0.0249,0.0255,0.0252,0.0254,0.0264,0.0261,0.0258,0.0298,0.0298,0.0298,0,0,-0.0169,-0.0139,-0.0126,-0.0099,-0.0056,-0.0026,-0.0023,0.0026,0.0046,0.007,0.0105,0.0125,0.0169,0.0195,0.0214,0.0201,0.0226,0.0209,0.0187,0.0195,0.0192,0.019,0.0185,0.0183,0.0208,0.0208,0.0208,0,-0.0199,-0.0164,-0.0123,-0.0103,-0.0083,-0.004,-0.0027,-0.0002,0.0046,0.0059,0.007,0.0127,0.0156,0.0181,0.0178,0.0192,0.0197,0.0203,0.019,0.0188,0.0186,0.0182,0.018,0.0206,0.0206,0.0206,0.0207,0,-0.0202,-0.0178,-0.0173,-0.0127,-0.0106,-0.009,-0.0046,-0.003,-0.0005,0.0024,0.0048,0.0085,0.012,0.0128,0.0152,0.0157,0.0162,0.0181,0.0201,0.0179,0.0176,0.0175,0.0202,0.0203,0.0204,0.0205,0,0,-0.0256,-0.0187,-0.0186,-0.0164,-0.0114,-0.0096,-0.0078,-0.0043,-0.003,0.0002,0.0018,0.0054,0.0072,0.0094,0.0121,0.0129,0.0115,0.0147,0.0148,0.0139,0.0122,0.0107,0.0105,0.0132,0.0132,0.0132,0.0119,0,-0.0273,-0.0237,-0.0199,-0.0177,-0.0156,-0.0115,-0.0099,-0.0067,-0.0039,-0.0017,0.0013,0.0038,0.006,0.0074,0.0083,0.0115,0.0112,0.0117,0.0147,0.0148,0.0135,0.0103,0.0087,0.0073,0.0118,0.0117,0.0117,0,-0.0287,-0.0256,-0.0232,-0.0184,-0.0174,-0.016,-0.0125,-0.0104,-0.0067,-0.0048,-0.0024,0.0006,0.0027,0.0044,0.0073,0.0075,0.009,0.0108,0.0108,0.0112,0.0131,0.0105,0.0069,0.0067,0.0116,0.0116,0.0116,0,-0.033,-0.0282,-0.0262,-0.0245,-0.0188,-0.018,-0.0156,-0.0118,-0.01,-0.007,-0.0057,-0.0025,-0.0008,0.0016,0.0053,0.0063,0.0078,0.0099,0.0095,0.0094,0.0095,0.0095,0.0061,0.0106,0.0106,0.0106,0.0106,0,-0.0352,-0.0339,-0.028,-0.0268,-0.0252,-0.0209,-0.0194,-0.0167,-0.0134,-0.0116,-0.0078,-0.0062,-0.0014,0.0008,0.0037,0.0057,0.0064,0.008,0.0088,0.0077,0.0074,0.0086,0.0088,0.0105,0.0105,0.0105,0.0105,0,-0.0398,-0.0357,-0.0332,-0.0281,-0.0267,-0.0258,-0.0214,-0.0201,-0.0171,-0.0148,-0.014,-0.0094,-0.0066,-0.0026,0.0013,0.0033,0.0048,0.006,0.0035,0.004,0.0033,0.0032,0.0005,0.0003,0.0049,0.0048,0.0048,0,-0.0415,-0.0404,-0.0351,-0.0336,-0.0313,-0.0289,-0.027,-0.0227,-0.0208,-0.0165,-0.0157,-0.0127,-0.01,-0.0058,-0.002,0.001,0.0023,0.0011,0.0028,0.0016,0.0022,0.0021,0.0022,0.0007,0.0006,0.0006,0.0005,0,-0.045,-0.0431,-0.0404,-0.0371,-0.0349,-0.032,-0.029,-0.028,-0.0231,-0.0212,-0.0183,-0.0162,-0.0122,-0.0092,-0.0056,-0.0032,-0.0006,-0.0,0.0,-0.0011,-0.0026,-0.0019,0.0024,0.0,0.0001,0.0001,0.0001,0.0002,-0.0482,-0.047,-0.0431,-0.0403,-0.0376,-0.0348,-0.0333,-0.0301,-0.0276,-0.0239,-0.0215,-0.0188,-0.0151,-0.01,-0.0077,-0.0056,-0.0044,-0.0044,-0.0044,-0.0044,-0.0048,-0.0029,-0.0049,-0.0049,-0.0048,-0.0048,-0.0048,0,-0.0516,-0.0488,-0.0463,-0.0422,-0.04,-0.0375,-0.0341,-0.0324,-0.03,-0.0268,-0.0242,-0.0209,-0.018,-0.014,-0.0108,-0.0098,-0.0085,-0.0091,-0.0092,-0.0087,-0.006,-0.0064,-0.0103,-0.0103,-0.0103,-0.0103,-0.0103,-0.0103,-0.0531,-0.051,-0.0486,-0.0451,-0.0424,-0.0396,-0.0378,-0.0353,-0.0327,-0.0292,-0.0267,-0.0241,-0.0206,-0.0171,-0.0143,-0.0132,-0.0123,-0.0133,-0.0118,-0.0094,-0.0089,-0.0084,-0.0088,-0.0131,-0.0131,-0.0147,-0.0147,-0.0148]},{"header":{"parameterUnit":"m.s-1","parameterCategory":1,"la1":30.2991,"la2":30.254,"lo1":-89.0895,"lo2":-89.0444,"dy":0.0017,"dx":0.0017,"nx":28,"ny":28,"refTime":"2025-04-25T09:00:00:Z","depth":0,"parameterNumber":3,"parameterNumberName":"V-component_of_WINDS"},"data":[0,0,0,0,0,0,0,0,0,0,0,0,0,0,0,0,0,0,0,0,0,0,0,0,0,0,0,0,0,0,0,0,0,0,0,0,0,0,0,0,0,0,0,0,0,0,0,0,0,0,0,0,0,0,0,0,0,0,2.6791,2.6791,0,2.6816,2.6816,2.6816,2.6786,2.6785,2.6784,2.6783,2.6807,2.6809,2.6811,0,0,0,0,0,0,0,0,0,0,0,0,0,2.6715,2.6716,2.679,2.6791,2.6791,2.6816,2.6816,2.6816,2.6786,2.6785,2.6784,2.6782,2.6807,2.6809,2.6811,0,0,0,0,0,0,0,0,0,0,0,0,0,2.6744,2.6717,2.679,2.6779,2.6778,2.6816,2.6816,2.6816,2.6787,2.6785,2.6783,2.6782,2.6806,2.6808,2.6811,2.686,0,0,2.6819,2.682,0,0,0,0,0,0,0,0,2.6743,2.6747,2.6781,2.678,2.6779,2.6796,2.6798,2.6831,2.6787,2.6784,2.6783,2.6781,2.6805,2.6807,2.6816,2.6861,2.6862,2.6819,2.682,2.6822,2.6822,0,0,0,0,0,0,0,2.6741,2.6746,2.68,2.6781,2.678,2.6772,2.6775,2.6804,2.6803,2.6784,2.6782,2.6785,2.6804,2.6813,2.6816,2.6863,2.6819,2.6821,2.6823,2.6824,2.6949,2.6951,0,0,0,0,0,0,2.674,2.6744,2.68,2.6801,2.6757,2.6775,2.6778,2.6792,2.6803,2.6803,2.6786,2.6784,2.681,2.6813,2.6817,2.6875,2.6822,2.6824,2.6825,2.6947,2.6949,2.6951,0,0,0,0,0,0,2.6739,2.6745,2.6799,2.6772,2.6778,2.6778,2.6795,2.6794,2.6803,2.6805,2.6804,2.6796,2.6809,2.6813,2.685,2.6875,2.6825,2.6827,2.6945,2.6948,2.695,2.6991,0,0,0,0,0,0,2.6737,2.6745,2.6764,2.6773,2.678,2.6832,2.6796,2.6795,2.6808,2.6804,2.6814,2.6814,2.6808,2.6846,2.6852,2.6878,2.6829,2.6943,2.6946,2.695,2.6988,2.6995,2.7001,0,0,0,0,0,2.6734,2.6774,2.6765,2.6772,2.6804,2.6833,2.6837,2.683,2.681,2.6829,2.683,2.6814,2.6871,2.685,2.6857,2.6883,2.6941,2.6945,2.6949,2.6985,2.6994,2.7001,0,0,0,0,0,0,2.6768,2.6775,2.6765,2.681,2.6821,2.6828,2.6852,2.6839,2.6856,2.6852,2.6842,2.6844,2.6883,2.6887,2.6863,2.6931,2.6903,2.6909,2.6927,2.6936,2.6943,2.6941,2.6831,0,0,0,0,0,2.6781,2.6805,2.6809,2.6848,2.6854,2.6852,2.6865,2.6858,2.6869,2.6873,2.6877,2.6888,2.6909,2.6922,2.6941,2.6988,2.6989,2.701,2.7016,2.7022,2.7027,2.7052,2.7061,2.6965,2.6965,2.6965,0,0,2.6807,2.6814,2.683,2.6855,2.6863,2.6887,2.6856,2.6883,2.6901,2.6877,2.6912,2.6915,2.6927,2.6968,2.6987,2.6973,2.7054,2.7027,2.7032,2.7034,2.7057,2.7066,2.7074,2.6968,2.6967,2.6967,0,0,2.6868,2.6876,2.6909,2.6918,2.693,2.6929,2.6936,2.6945,2.6947,2.6981,2.6964,2.6984,2.702,2.7029,2.7038,2.7102,2.7088,2.7108,2.7144,2.7168,2.7176,2.7183,2.7205,2.7214,2.7113,2.7113,2.7113,0,2.6899,2.6936,2.6927,2.6956,2.6967,2.6947,2.698,2.6989,2.7007,2.7015,2.6999,2.7043,2.705,2.7093,2.7109,2.7117,2.7125,2.7107,2.7176,2.7182,2.7188,2.721,2.7218,2.7116,2.7116,2.7115,2.7115,0,2.6974,2.6999,2.7024,2.7043,2.7057,2.7087,2.7083,2.7098,2.709,2.709,2.7125,2.7132,2.7152,2.7162,2.7154,2.7204,2.7195,2.7177,2.7149,2.72,2.722,2.7228,2.7119,2.7119,2.7118,2.7117,0,0,2.7057,2.707,2.708,2.7088,2.71,2.7119,2.7149,2.7169,2.7182,2.7195,2.7219,2.7249,2.7233,2.7244,2.7237,2.7258,2.7308,2.7238,2.7238,2.7251,2.7363,2.7376,2.7386,2.7298,2.73,2.7301,2.7362,0,2.7118,2.717,2.7163,2.7212,2.7235,2.7216,2.7242,2.7252,2.7252,2.7271,2.7271,2.7293,2.7271,2.7277,2.7297,2.7298,2.733,2.7293,2.732,2.7321,2.7318,2.7396,2.741,2.7468,2.737,2.7371,2.7372,0,2.7196,2.7212,2.7264,2.7273,2.7282,2.7305,2.7323,2.7342,2.7352,2.7351,2.7363,2.7352,2.738,2.7351,2.7391,2.7365,2.7376,2.7378,2.738,2.7382,2.735,2.7401,2.7486,2.7494,2.7384,2.7383,2.7382,0,2.7252,2.7287,2.7322,2.7329,2.734,2.7357,2.7362,2.7371,2.7384,2.7399,2.7406,2.7425,2.7435,2.7449,2.7442,2.7422,2.7483,2.7453,2.7482,2.7483,2.7496,2.7495,2.7584,2.7503,2.7503,2.7503,2.7502,0,2.7321,2.7353,2.7347,2.7369,2.7405,2.7396,2.7431,2.7434,2.7442,2.7464,2.7448,2.7468,2.7459,2.7479,2.7474,2.7507,2.7512,2.7511,2.751,2.7513,2.7513,2.752,2.7516,2.7505,2.7504,2.7504,2.7504,0,2.7389,2.7386,2.7424,2.7431,2.7434,2.7459,2.7465,2.7485,2.7484,2.7512,2.7518,2.7516,2.7539,2.7534,2.7558,2.7555,2.7597,2.759,2.7593,2.7592,2.7621,2.7618,2.7717,2.773,2.7641,2.7641,2.7642,0,2.7433,2.7458,2.7468,2.7481,2.7488,2.751,2.7523,2.7515,2.7528,2.7542,2.7561,2.7582,2.7598,2.7634,2.7635,2.7654,2.7647,2.7681,2.765,2.7652,2.7648,2.7646,2.7649,2.7687,2.7688,2.7689,2.7689,0,2.7512,2.751,2.7529,2.7548,2.7563,2.7577,2.759,2.7602,2.7595,2.7611,2.7634,2.7647,2.7671,2.7692,2.7709,2.7714,2.7701,2.7699,2.7707,2.771,2.7711,2.7711,2.761,2.7697,2.7696,2.7695,2.7695,2.7695,2.757,2.7591,2.7601,2.7623,2.7632,2.7644,2.7663,2.7665,2.7684,2.7704,2.7698,2.7724,2.7733,2.7755,2.7761,2.7781,2.7768,2.778,2.7782,2.7785,2.7789,2.7708,2.7784,2.7784,2.7783,2.7783,2.7783,0,2.7648,2.7654,2.7674,2.7692,2.7709,2.7695,2.7708,2.7723,2.7747,2.7757,2.7773,2.7799,2.7819,2.7822,2.784,2.7856,2.785,2.7861,2.786,2.7861,2.7799,2.7791,2.7865,2.7865,2.7865,2.7865,2.7865,2.7865,2.7691,2.7725,2.7724,2.7763,2.7768,2.7793,2.7802,2.7813,2.7821,2.7851,2.7868,2.7869,2.7876,2.7895,2.7913,2.7913,2.7921,2.7934,2.7932,2.7874,2.7866,2.7858,2.785,2.7936,2.7936,2.7992,2.7993,2.7993]}]]